Location: Fort Wayne
(41.1310°N, 85.1290°W)
Time: 08:34:25
(UTC-05:00)

Daily predictions for brighter satellites

Satellite Brightness Start Highest point End
(mag) Time Altitude Azimuth Time Altitude Azimuth Time Altitude Azimuth
Cosmos 1500 4.1 17:36:21 10° NNE 17:39:41 28° ENE 17:43:03 10° SE
Cosmos 2251 Rocket 3.6 17:34:34 10° NNW 17:39:57 88° WSW 17:45:14 10° SSE
Cosmos 375 4.5 17:36:11 10° NNW 17:40:39 58° NE 17:44:26 10° SE
Cosmos 2366 rocket 4.0 17:41:44 10° N 17:48:07 73° E 17:54:22 10° SSE
AQUARIUS 4.3 17:45:57 10° SSE 17:50:17 51° ENE 17:54:40 10° N
Cosmos 1484 Rocket 4.0 17:51:42 10° ESE 17:54:27 20° ENE 17:57:11 10° NNE
Cosmos 2218 Rocket 4.1 17:52:11 10° N 17:58:28 83° W 18:04:38 10° S
PAYLOAD A 4.1 17:53:49 10° S 17:58:40 82° WSW 18:03:44 10° NNW
Cosmos 1238 Rocket 2.5 17:55:46 10° SSW 17:58:40 68° W 18:01:52 10° N
Cosmos 1975 2.8 17:55:37 10° N 17:59:39 63° E 18:03:38 10° SSE
USA 234 3.3 17:53:54 10° NE 18:00:28 78° SE 18:07:00 10° SW
USA 116 4.4 17:58:26 10° NNE 18:03:49 79° ESE 18:08:50 10° S
Cosmos 1844 Rocket 4.2 18:00:28 10° WSW 18:05:27 32° WNW 18:10:30 10° N
CZ-4 R/B 1.6 18:02:34 10° S 18:06:44 80° W 18:10:52 10° NNW
MSX 3.9 18:04:15 10° SSE 18:09:50 58° ENE 18:15:28 10° N
MOS 1 4.3 18:04:20 10° SSE 18:09:59 88° ENE 18:15:40 10° NNW
Meteor 1-12 Rocket 4.5 18:05:57 10° NNW 18:11:48 80° W 18:17:43 10° S
Abrixas 2.3 18:09:38 10° WNW 18:12:35 67° NNE 18:15:01 14° ESE
NOSS 3-4 (A) 4.3 18:06:52 10° NNW 18:13:19 39° NE 18:20:07 10° ESE
NOSS 3-4 (C) 4.3 18:06:58 10° NNW 18:13:25 38° NE 18:20:12 10° ESE
CORIOLIS 4.1 18:08:35 10° SSE 18:13:59 80° ENE 18:19:23 10° NNW
COSMO-SKYMED 1 3.3 18:10:16 10° NNE 18:14:11 32° E 18:18:04 10° SSE
Meteor 2-4 Rocket 4.4 18:09:50 10° SSE 18:14:20 28° E 18:18:49 10° NNE
CZ-2C R/B 2.6 18:09:55 10° SSE 18:14:56 86° WSW 18:20:08 10° NNW
Cosmos 1812 3.8 18:12:36 10° SSW 18:16:19 47° W 18:20:04 10° N
CZ-3B DEB 2.8 18:13:56 10° WSW 18:17:39 51° NNW 18:25:57 12° NE
COSMOS 2441 4.5 18:13:31 10° SSE 18:18:15 55° ENE 18:23:03 10° N
NOSS 3-3 (C) 4.5 18:13:49 10° SW 18:19:56 60° NW 18:26:35 10° NNE
Cosmos 2056 Rocket 4.4 18:16:12 10° SSE 18:20:46 29° E 18:23:51 17° NE
Cosmos 1821 Rocket 4.3 18:15:50 10° N 18:21:32 40° ENE 18:27:14 10° SE
Timation 2 Rocket 4.1 18:16:31 10° NNW 18:23:23 78° ENE 18:30:17 10° SSE
Cosmos 921 Rocket 2.9 18:20:35 10° S 18:24:46 65° ESE 18:28:57 11° NNE
Cosmos 1025 Rocket 3.7 18:21:20 10° SSE 18:25:14 33° E 18:28:12 16° NE
ATLAS 2AS CENTAUR R/B 4.4 18:20:51 10° NW 18:28:09 40° WSW 18:34:58 10° S
Cosmos 1624 Rocket 4.4 18:28:53 10° S 18:33:42 40° ESE 18:36:48 20° NE
YAOGAN 1 3.5 18:34:00 10° S 18:38:12 51° W 18:42:26 10° NNW
Cosmos 1371 Rocket 4.1 18:34:06 10° S 18:39:20 58° ESE 18:43:24 17° NNE
Cosmos 2297 3.8 18:34:01 10° SSW 18:39:40 76° WNW 18:45:17 10° NNE
Meteor 2-21 Rocket 4.4 18:35:01 10° N 18:41:14 86° E 18:47:22 10° S
Meteor 2-16 Rocket 4.3 18:36:10 10° N 18:42:16 72° E 18:48:19 10° SSE
COSMOS 2487 4.1 18:39:58 10° NW 18:43:18 37° WSW 18:46:38 10° S
SKYMED 3 4.5 18:40:12 11° NNE 18:44:19 71° ESE 18:48:38 10° S
Nadezhda 3 Rocket 4.1 18:42:02 10° S 18:48:15 80° W 18:54:34 10° N
Cosmos 2278 Rocket 3.8 18:44:26 10° WSW 18:49:26 32° WNW 18:54:28 10° N
Cosmos 1346 Rocket 4.2 18:47:48 10° SW 18:51:25 37° WNW 18:55:03 10° N
Cosmos 1666 2.7 18:50:19 10° N 18:54:07 56° E 18:57:56 10° SSE
GEOS 3 Rocket 3.9 19:00:07 38° E 19:01:12 44° NE 19:06:03 10° NNW
ISS -0.8 18:59:41 10° NNW 19:00:43 13° NNW 19:00:43 13° NNW
SKYMED 2 3.7 18:58:26 13° N 19:02:20 73° WNW 19:06:39 10° SSW
Delta 2 Rocket 4.2 19:01:22 10° WSW 19:04:48 36° S 19:05:39 32° SSE
Cosmos 1833 Rocket 3.1 19:02:06 10° NNW 19:07:40 62° WSW 19:13:12 10° S
Cosmos 1727 Rocket 4.2 19:04:01 10° SSE 19:09:49 44° E 19:10:52 40° ENE
Cosmos 1190 Rocket 3.9 19:05:59 10° NNW 19:11:13 66° ENE 19:15:36 14° SSE
Intercosmos 25 4.5 19:08:42 10° NNW 19:11:39 36° W 19:14:53 10° SSW
NOSS 2-1 (D) 4.3 19:08:06 10° WSW 19:11:47 43° NW 19:13:17 30° N
NOSS 2-1 (C) 4.3 19:08:45 10° WSW 19:12:27 43° NW 19:13:57 31° N
Cosmos 2082 Rocket 3.3 19:09:28 10° NW 19:14:51 46° WSW 19:20:14 10° S
Tiangong 1 2.5 19:12:03 10° W 19:14:01 35° WNW 19:14:01 35° WNW
Cosmos 1743 4.2 19:12:03 10° NNW 19:15:38 37° W 19:19:11 10° SSW
Cosmos 1892 Rocket 3.4 19:13:15 10° S 19:17:15 68° SE 19:17:15 68° SE
FALCON 9 R/B 3.6 18:57:37 10° WSW 19:21:07 61° S 19:24:35 34° ESE
Meteor 1-28 Rocket 3.4 19:21:16 67° NW 19:21:27 69° WNW 19:25:12 10° SSW
Cosmos 1726 Rocket 3.5 19:20:33 10° N 19:25:02 88° W 19:29:30 10° S
Okean 2 3.6 19:26:18 10° SSW 19:30:08 68° WSW 19:30:08 68° WSW
Cosmos 1934 Rocket 4.3 19:27:57 10° NNW 19:34:07 68° W 19:40:21 10° S
USA 234 4.2 19:40:41 29° NNE 19:43:07 38° NNW 19:49:02 10° W
Cosmos 1339 Rocket 4.4 19:40:41 10° S 19:45:55 66° SSE 19:45:55 66° SSE
Cosmos 2369 Rocket 3.2 19:47:31 10° S 19:50:46 35° S 19:50:46 35° S
Cosmos 407 Rocket 4.2 19:57:21 10° NNW 20:02:19 50° WSW 20:02:22 50° WSW
NOSS 3-4 (A) 4.5 19:57:40 10° NW 20:04:29 52° WSW 20:11:08 12° S
NOSS 3-4 (C) 4.5 19:57:45 10° NW 20:04:35 53° WSW 20:10:58 14° S
BREEZE M DEB (TANK) 4.2 20:11:10 10° WNW 20:16:05 78° SSW 20:18:05 59° SE
ATLAS 3B CENTAUR R/B 4.3 20:07:17 10° W 20:20:53 32° SSW 20:23:22 27° S
CZ-3B DEB 4.5 20:47:49 10° WNW 20:53:54 39° N 20:53:54 39° N
